FW6629 Weather Reports


Display with metric or nautical units.
time (UTC)temp
F
wind
direction
speed
MPH
gust
MPH
rain 1hr
in
rain 24hr
in
rain mn
in
humidity
%
barometer
mb
20260509203524 77 214 3.0 6.0 0.00 0.00 0.00 54 1010.5
20260509203044 77 343 3.0 6.0 0.00 0.00 0.00 53 1010.3
20260509202523 77 270 2.0 5.0 0.00 0.00 0.00 56 1010.3
20260509202024 77 228 1.0 9.0 0.00 0.00 0.00 55 1010.3
20260509201542 77 305 3.0 9.0 0.00 0.00 0.00 55 1010.2
20260509201023 77 241 4.0 9.0 0.00 0.00 0.00 56 1010.3
20260509200524 77 288 3.0 8.0 0.00 0.00 0.00 57 1010.3
20260509200044 77 223 1.0 9.0 0.00 0.00 0.00 56 1010.3
20260509195524 77 15 4.0 9.0 0.00 0.00 0.00 55 1010.5
20260509195026 76 314 2.0 6.0 0.00 0.00 0.00 59 1010.6
20260509194546 76 98 0.0 5.0 0.00 0.00 0.00 59 1010.7
20260509194023 76 132 3.0 5.0 0.00 0.00 0.00 59 1010.7
20260509193523 76 98 0.0 5.0 0.00 0.00 0.00 60 1010.7
20260509193042 76 235 3.0 9.0 0.00 0.00 0.00 59 1010.7
20260509192524 76 146 5.0 9.0 0.00 0.00 0.00 59 1010.8
20260509192027 76 103 4.0 9.0 0.00 0.00 0.00 59 1010.9
20260509191537 76 124 4.0 9.0 0.00 0.00 0.00 61 1010.8
20260509191025 76 157 3.0 5.0 0.00 0.00 0.00 59 1010.9
20260509190523 76 116 2.0 7.0 0.00 0.00 0.00 61 1010.9
20260509190041 76 140 3.0 7.0 0.00 0.00 0.00 60 1011.0
20260509185524 76 211 2.0 7.0 0.00 0.00 0.00 60 1011.1
20260509185025 76 220 3.0 7.0 0.00 0.00 0.00 60 1011.2
20260509184538 77 160 3.0 7.0 0.00 0.00 0.00 59 1011.2
20260509184022 78 92 2.0 5.0 0.00 0.00 0.00 56 1011.2
20260509183522 77 275 2.0 5.0 0.00 0.00 0.00 59 1011.2
20260509183044 77 331 2.0 7.0 0.00 0.00 0.00 59 1011.0
20260509182522 77 160 2.0 7.0 0.00 0.00 0.00 57 1011.1
20260509182024 77 96 3.0 6.0 0.00 0.00 0.00 59 1011.2
20260509181544 75 192 2.0 6.0 0.00 0.00 0.00 61 1011.3
20260509181021 75 67 1.0 5.0 0.00 0.00 0.00 59 1011.3
20260509180522 75 323 1.0 6.0 0.00 0.00 0.00 60 1011.1
20260509180044 75 356 2.0 6.0 0.00 0.00 0.00 61 1011.0
20260509175523 75 203 2.0 6.0 0.00 0.00 0.00 59 1011.0
20260509175025 75 177 2.0 5.0 0.00 0.00 0.00 58 1011.0
20260509174552 76 227 1.0 5.0 0.00 0.00 0.00 59 1011.0
20260509174021 76 283 2.0 9.0 0.00 0.00 0.00 59 1011.0
20260509173522 76 333 4.0 9.0 0.00 0.00 0.00 60 1010.9
20260509173044 75 96 2.0 5.0 0.00 0.00 0.00 63 1011.1
20260509172523 75 0 0.0 9.0 0.00 0.00 0.00 59 1011.2
20260509172023 75 81 1.0 9.0 0.00 0.00 0.00 61 1011.4
20260509171539 75 142 5.0 9.0 0.00 0.00 0.00 61 1011.5
20260509171021 75 158 3.0 9.0 0.00 0.00 0.00 61 1011.7
20260509170521 74 85 2.0 9.0 0.00 0.00 0.00 63 1011.7
20260509170047 74 146 5.0 8.0 0.00 0.00 0.00 63 1011.8
20260509165523 73 82 2.0 7.0 0.00 0.00 0.00 64 1011.8
20260509165025 73 104 3.0 7.0 0.00 0.00 0.00 65 1011.8
20260509164547 73 12 2.0 6.0 0.00 0.00 0.00 64 1011.8
20260509164021 73 44 1.0 6.0 0.00 0.00 0.00 66 1011.8
20260509163522 72 73 2.0 10.0 0.00 0.00 0.00 66 1011.8
20260509163045 72 69 3.0 10.0 0.00 0.00 0.00 68 1011.9
20260509162522 72 135 5.0 10.0 0.00 0.00 0.00 66 1011.9
20260509162029 72 127 4.0 9.0 0.00 0.00 0.00 67 1011.8
20260509161542 71 121 2.0 6.0 0.00 0.00 0.00 66 1011.9
20260509161021 71 94 1.0 7.0 0.00 0.00 0.00 65 1012.0
20260509160522 71 178 3.0 7.0 0.00 0.00 0.00 68 1012.2
20260509160042 70 321 3.0 6.0 0.00 0.00 0.00 67 1012.3
20260509155522 70 301 2.0 5.0 0.00 0.00 0.00 69 1012.4
20260509155022 70 127 2.0 7.0 0.00 0.00 0.00 70 1012.4
20260509154537 70 298 1.0 10.0 0.00 0.00 0.00 72 1012.3
20260509154020 69 106 2.0 10.0 0.00 0.00 0.00 72 1012.4
20260509153522 69 137 5.0 10.0 0.00 0.00 0.00 73 1012.4
20260509153044 68 138 4.0 7.0 0.00 0.00 0.00 73 1012.5
20260509152520 68 167 3.0 5.0 0.00 0.00 0.00 74 1012.5
20260509152021 68 77 3.0 8.0 0.00 0.00 0.00 75 1012.4
20260509151545 67 155 4.0 8.0 0.00 0.00 0.00 74 1012.5
20260509151021 67 181 4.0 7.0 0.00 0.00 0.00 76 1012.5
20260509150521 66 125 4.0 7.0 0.00 0.00 0.00 76 1012.4
20260509150041 66 110 2.0 5.0 0.00 0.00 0.00 77 1012.3
20260509145522 66 143 3.0 6.0 0.00 0.00 0.00 77 1012.3
20260509145021 65 143 1.0 6.0 0.00 0.00 0.00 78 1012.4
20260509144559 65 139 3.0 5.0 0.00 0.00 0.00 79 1012.4
20260509144022 65 132 2.0 6.0 0.00 0.00 0.00 79 1012.5
20260509143525 65 150 2.0 6.0 0.00 0.00 0.00 78 1012.6
20260509143044 64 117 2.0 4.0 0.00 0.00 0.00 79 1012.6
20260509142521 64 296 1.0 5.0 0.00 0.00 0.00 79 1012.4
20260509142021 64 88 2.0 5.0 0.00 0.00 0.00 80 1012.2
20260509141547 64 293 1.0 5.0 0.00 0.00 0.00 80 1012.0
20260509141022 64 113 2.0 5.0 0.00 0.00 0.00 82 1011.9
20260509140521 63 121 2.0 4.0 0.00 0.00 0.00 83 1011.8
20260509140058 63 134 2.0 4.0 0.00 0.00 0.00 83 1011.8
20260509135524 62 139 2.0 4.0 0.00 0.00 0.00 84 1011.9
20260509135026 62 325 1.0 6.0 0.00 0.00 0.00 84 1011.7
20260509134550 61 105 3.0 6.0 0.00 0.00 0.00 85 1011.7
20260509134021 61 290 2.0 3.0 0.00 0.00 0.00 85 1011.7
20260509133521 61 186 0.0 3.0 0.00 0.00 0.00 86 1011.7
20260509133041 60 144 1.0 4.0 0.00 0.00 0.00 86 1011.8
20260509132521 60 146 1.0 4.0 0.00 0.00 0.00 87 1011.7
20260509132023 60 94 2.0 5.0 0.00 0.00 0.00 88 1011.8
20260509131552 59 127 1.0 5.0 0.00 0.00 0.00 88 1011.7
20260509131021 59 93 2.0 4.0 0.00 0.00 0.00 89 1011.5
20260509130522 58 150 1.0 2.0 0.00 0.00 0.00 90 1011.8
20260509130037 58 170 1.0 3.0 0.00 0.00 0.00 90 1011.9
20260509125523 58 169 1.0 3.0 0.00 0.00 0.00 90 1011.9
20260509125021 57 120 1.0 3.0 0.00 0.00 0.00 91 1012.0
20260509124542 57 165 1.0 2.0 0.00 0.00 0.00 90 1012.1
20260509124021 56 227 1.0 3.0 0.00 0.00 0.00 91 1012.0
20260509123523 56 150 1.0 3.0 0.00 0.00 0.00 91 1012.0
20260509123046 56 117 2.0 3.0 0.00 0.00 0.00 91 1011.9
20260509122522 55 123 1.0 2.0 0.00 0.00 0.00 91 1011.9
20260509122021 55 0 0.0 2.0 0.00 0.00 0.00 91 1011.8
20260509121556 55 0 0.0 2.0 0.00 0.00 0.00 91 1011.8
20260509121031 55 0 0.0 2.0 0.00 0.00 0.00 91 1011.6
20260509120521 55 0 0.0 2.0 0.00 0.00 0.00 91 1011.7
20260509120041 54 315 0.0 1.0 0.00 0.00 0.00 91 1011.8
20260509115520 54 0 0.0 1.0 0.00 0.00 0.00 91 1011.6
20260509115021 54 0 0.0 1.0 0.00 0.00 0.00 91 1011.7
20260509114537 54 353 1.0 2.0 0.00 0.00 0.00 91 1011.7
20260509114021 54 0 0.0 2.0 0.00 0.00 0.00 91 1011.5
20260509113522 54 353 0.0 2.0 0.00 0.00 0.00 91 1011.4
20260509113037 54 0 0.0 2.0 0.00 0.00 0.00 91 1011.4
20260509112520 54 353 0.0 2.0 0.00 0.00 0.00 91 1011.6
20260509112023 54 0 0.0 3.0 0.00 0.00 0.00 91 1011.4
20260509111536 54 353 1.0 3.0 0.00 0.00 0.00 91 1011.4
20260509111021 53 356 1.0 2.0 0.00 0.00 0.00 91 1011.4
20260509110521 53 29 0.0 2.0 0.00 0.00 0.00 91 1011.4
20260509110043 53 0 0.0 0.0 0.00 0.00 0.00 91 1011.3
20260509105521 53 0 0.0 2.0 0.00 0.00 0.00 91 1011.3
20260509105021 53 0 0.0 2.0 0.00 0.00 0.00 91 1011.3
20260509104542 53 29 0.0 2.0 0.00 0.00 0.00 91 1011.4
20260509104024 53 0 0.0 2.0 0.00 0.00 0.00 91 1011.2
20260509103522 53 0 0.0 2.0 0.00 0.00 0.00 91 1011.2
20260509103041 53 0 0.0 2.0 0.00 0.00 0.00 91 1011.2
20260509102521 53 0 0.0 2.0 0.00 0.00 0.00 91 1011.2
20260509102020 53 0 0.0 2.0 0.00 0.00 0.00 91 1011.2
20260509101544 53 120 0.0 2.0 0.00 0.00 0.00 91 1011.2
20260509101021 53 358 0.0 2.0 0.00 0.00 0.00 91 1011.3
20260509100523 53 307 0.0 2.0 0.00 0.00 0.00 91 1011.2
20260509100037 53 199 0.0 2.0 0.00 0.00 0.00 91 1011.2
20260509095524 53 203 0.0 2.0 0.00 0.00 0.00 91 1011.1
20260509095023 53 0 0.0 2.0 0.00 0.00 0.00 91 1011.2
20260509094544 53 156 0.0 3.0 0.00 0.00 0.00 91 1011.1
20260509094021 53 112 2.0 2.0 0.00 0.00 0.00 91 1011.1
20260509093521 53 0 0.0 2.0 0.00 0.00 0.00 91 1011.1
20260509093041 53 0 0.0 2.0 0.00 0.00 0.00 91 1011.2
20260509092521 53 0 0.0 3.0 0.00 0.00 0.00 91 1011.3
20260509092021 53 0 0.0 4.0 0.00 0.00 0.00 91 1011.2
20260509091543 53 104 2.0 4.0 0.00 0.00 0.00 91 1011.1
20260509091024 53 117 1.0 3.0 0.00 0.00 0.00 91 1011.2
20260509090524 52 128 1.0 3.0 0.00 0.00 0.00 91 1011.4
20260509090051 52 163 1.0 3.0 0.00 0.00 0.00 91 1011.6
20260509085521 52 118 1.0 3.0 0.00 0.00 0.00 91 1011.8
20260509085023 52 135 1.0 3.0 0.00 0.00 0.00 91 1011.9
20260509084542 52 111 2.0 3.0 0.00 0.00 0.00 90 1012.0
20260509084021 52 139 1.0 2.0 0.00 0.00 0.00 91 1011.9
20260509083524 52 126 1.0 3.0 0.00 0.00 0.00 90 1011.9
20260509083047 51 106 1.0 4.0 0.00 0.00 0.00 90 1011.8
20260509082522 51 157 2.0 4.0 0.00 0.00 0.00 90 1011.8
20260509082023 51 136 2.0 3.0 0.00 0.00 0.00 90 1011.8
20260509081546 51 120 0.0 1.0 0.00 0.00 0.00 90 1011.9
20260509081024 51 0 0.0 0.0 0.00 0.00 0.00 90 1011.7
20260509080522 51 0 0.0 2.0 0.00 0.00 0.00 90 1011.6
20260509080046 51 0 0.0 2.0 0.00 0.00 0.00 90 1011.5
20260509075525 51 0 0.0 2.0 0.00 0.00 0.00 90 1011.5
20260509075023 51 0 0.0 2.0 0.00 0.00 0.00 90 1011.6
20260509074543 51 0 0.0 2.0 0.00 0.00 0.00 90 1011.4
20260509074020 51 170 0.0 3.0 0.00 0.00 0.00 90 1011.4
20260509073521 51 133 1.0 3.0 0.00 0.00 0.00 90 1011.3
20260509073041 51 169 1.0 2.0 0.00 0.00 0.00 90 1011.2
20260509072521 51 106 0.0 3.0 0.00 0.00 0.00 89 1011.2
20260509072020 51 156 1.0 3.0 0.00 0.00 0.00 89 1011.2
20260509071540 51 118 1.0 2.0 0.00 0.00 0.00 89 1011.1
20260509071023 51 113 2.0 2.0 0.00 0.00 0.00 89 1011.3
20260509070524 51 111 2.0 2.0 0.00 0.00 0.00 89 1011.3
20260509070046 51 173 0.0 1.0 0.00 0.00 0.00 89 1011.6
20260509065520 51 0 0.0 2.0 0.00 0.00 0.00 89 1011.6
20260509065020 51 0 0.0 2.0 0.00 0.00 0.00 89 1011.7
20260509064545 51 173 0.0 2.0 0.00 0.00 0.00 89 1011.7
20260509064027 51 0 0.0 2.0 0.00 0.00 0.00 88 1011.8
20260509063526 51 0 0.0 2.0 0.00 0.00 0.00 88 1011.8
20260509063040 51 171 0.0 2.0 0.00 0.00 0.00 88 1011.8
20260509062526 51 0 0.0 2.0 0.00 0.00 0.00 88 1011.9
20260509062028 51 0 0.0 2.0 0.00 0.00 0.00 88 1011.9
20260509061542 51 0 0.0 2.0 0.00 0.00 0.00 88 1012.0
20260509061023 51 144 0.0 2.0 0.00 0.00 0.00 88 1011.9
20260509060520 51 0 0.0 2.0 0.00 0.00 0.00 88 1012.2
20260509060055 51 0 0.0 2.0 0.00 0.00 0.00 87 1012.4
20260509055524 52 0 0.0 2.0 0.00 0.00 0.00 87 1012.5
20260509055024 52 0 0.0 2.0 0.00 0.00 0.00 87 1012.6
20260509054539 52 0 0.0 2.0 0.00 0.00 0.00 87 1012.5
20260509054023 52 120 1.0 2.0 0.00 0.00 0.00 87 1012.6
20260509053522 52 131 0.0 2.0 0.00 0.00 0.00 86 1012.8
20260509053110 52 131 0.0 2.0 0.00 0.00 0.00 86 1012.8
20260509052520 52 0 0.0 2.0 0.00 0.00 0.00 85 1012.8
20260509052021 53 0 0.0 2.0 0.00 0.00 0.00 85 1012.8
20260509051541 53 131 0.0 2.0 0.00 0.00 0.00 85 1012.6
20260509051021 53 0 0.0 0.0 0.00 0.00 0.00 85 1012.6
20260509050520 53 0 0.0 2.0 0.00 0.00 0.00 85 1012.7
20260509050039 53 0 0.0 2.0 0.00 0.00 0.00 84 1012.6
20260509045525 54 0 0.0 2.0 0.00 0.00 0.00 84 1012.4
20260509045024 54 0 0.0 2.0 0.00 0.00 0.00 84 1012.4
20260509044538 54 0 0.0 2.0 0.00 0.00 0.00 84 1012.4
20260509044024 54 0 0.0 1.0 0.00 0.00 0.00 84 1012.6
20260509043521 55 0 0.0 2.0 0.00 0.00 0.00 84 1012.6
20260509043101 55 131 1.0 2.0 0.00 0.00 0.00 84 1012.7
20260509042521 55 114 0.0 2.0 0.00 0.00 0.00 83 1012.9
20260509042021 55 0 0.0 2.0 0.00 0.00 0.00 83 1013.0
20260509041555 55 0 0.0 2.0 0.00 0.00 0.00 82 1013.0
20260509041020 56 0 0.0 2.0 0.00 0.00 0.00 81 1012.9
20260509040521 56 0 0.0 2.0 0.00 0.00 0.00 81 1012.9
20260509040045 56 114 0.0 2.0 0.00 0.00 0.00 81 1013.0
20260509035523 57 0 0.0 0.0 0.00 0.00 0.00 80 1013.0
20260509035024 57 0 0.0 2.0 0.00 0.00 0.00 80 1013.1
20260509034550 57 0 0.0 2.0 0.00 0.00 0.00 79 1013.1
20260509034025 57 0 0.0 2.0 0.00 0.00 0.00 79 1013.1
20260509033523 58 0 0.0 2.0 0.00 0.00 0.00 79 1013.0
20260509033047 58 0 0.0 2.0 0.00 0.00 0.00 79 1013.1
20260509032524 58 0 0.0 2.0 0.00 0.00 0.00 79 1013.0
20260509032023 58 133 1.0 2.0 0.00 0.00 0.00 78 1013.1
20260509031555 58 0 0.0 2.0 0.00 0.00 0.00 77 1013.2
20260509031024 59 116 1.0 2.0 0.00 0.00 0.00 77 1013.4
20260509030523 59 123 0.0 2.0 0.00 0.00 0.00 76 1013.3
20260509030042 59 123 0.0 2.0 0.00 0.00 0.00 76 1013.5
20260509025521 59 154 0.0 2.0 0.00 0.00 0.00 75 1013.6
20260509025024 59 0 0.0 2.0 0.00 0.00 0.00 75 1013.7
20260509024540 60 125 0.0 2.0 0.00 0.00 0.00 75 1013.6
20260509024026 60 0 0.0 2.0 0.00 0.00 0.00 75 1013.6
20260509023524 60 119 1.0 2.0 0.00 0.00 0.00 74 1013.7
20260509023040 60 0 0.0 2.0 0.00 0.00 0.00 74 1013.6
20260509022524 60 108 1.0 2.0 0.00 0.00 0.00 74 1013.4
20260509022024 61 110 1.0 2.0 0.00 0.00 0.00 73 1013.3
20260509021538 61 86 1.0 2.0 0.00 0.00 0.00 73 1013.2
20260509021025 61 115 1.0 2.0 0.00 0.00 0.00 72 1013.2
20260509020523 61 102 1.0 2.0 0.00 0.00 0.00 72 1013.1
20260509020049 61 112 1.0 2.0 0.00 0.00 0.00 71 1013.1
20260509015523 62 129 1.0 2.0 0.00 0.00 0.00 70 1013.0
20260509015024 62 109 1.0 2.0 0.00 0.00 0.00 69 1013.0
20260509014546 62 167 0.0 2.0 0.00 0.00 0.00 68 1013.0
20260509014025 63 106 1.0 2.0 0.00 0.00 0.00 67 1012.8
20260509013523 63 117 1.0 1.0 0.00 0.00 0.00 66 1012.9
20260509013051 63 129 1.0 1.0 0.00 0.00 0.00 65 1012.9
20260509012524 64 133 1.0 1.0 0.00 0.00 0.00 63 1012.9
20260509012020 64 104 0.0 2.0 0.00 0.00 0.00 63 1012.9
20260509011542 65 104 1.0 2.0 0.00 0.00 0.00 61 1012.9
20260509011020 65 0 0.0 2.0 0.00 0.00 0.00 61 1012.9
20260509010523 65 104 0.0 2.0 0.00 0.00 0.00 60 1012.9
20260509010049 66 130 1.0 2.0 0.00 0.00 0.00 60 1013.1
20260509005526 66 125 0.0 2.0 0.00 0.00 0.00 58 1013.1
20260509005028 66 139 0.0 2.0 0.00 0.00 0.00 58 1013.0
20260509004538 66 0 0.0 3.0 0.00 0.00 0.00 57 1013.0
20260509004023 67 136 1.0 3.0 0.00 0.00 0.00 56 1013.1
20260509003524 67 173 1.0 4.0 0.00 0.00 0.00 55 1013.2
20260509003049 67 158 1.0 4.0 0.00 0.00 0.00 54 1013.2
20260509002523 67 156 2.0 7.0 0.00 0.00 0.00 54 1013.1
20260509002023 68 117 2.0 7.0 0.00 0.00 0.00 53 1013.1
20260509001544 68 160 2.0 5.0 0.00 0.00 0.00 53 1013.2
20260509001025 68 129 1.0 3.0 0.00 0.00 0.00 53 1013.2
20260509000524 68 275 2.0 4.0 0.00 0.00 0.00 52 1013.1
20260509000041 69 0 1.0 7.0 0.00 0.00 0.00 51 1012.9
20260508235521 69 0 2.0 7.0 0.00 0.00 0.00 51 1013.1
20260508235025 69 7 2.0 7.0 0.00 0.00 0.00 51 1012.9
20260508234541 69 97 2.0 7.0 0.00 0.00 0.00 51 1012.8
20260508234022 69 191 2.0 6.0 0.00 0.00 0.00 52 1012.8
20260508233526 69 150 2.0 6.0 0.00 0.00 0.00 52 1012.9
20260508233038 70 181 1.0 6.0 0.00 0.00 0.00 51 1012.8
20260508232523 70 168 2.0 5.0 0.00 0.00 0.00 51 1012.8
20260508232023 70 124 2.0 5.0 0.00 0.00 0.00 51 1012.8
20260508231537 70 102 2.0 5.0 0.00 0.00 0.00 48 1012.8
20260508231027 70 177 3.0 5.0 0.00 0.00 0.00 49 1012.8
20260508230524 70 117 2.0 8.0 0.00 0.00 0.00 48 1013.0
20260508230056 70 248 2.0 6.0 0.00 0.00 0.00 49 1013.1
20260508225523 71 176 3.0 7.0 0.00 0.00 0.00 49 1013.1
20260508225023 71 217 3.0 7.0 0.00 0.00 0.00 48 1013.2
20260508224546 71 145 3.0 7.0 0.00 0.00 0.00 48 1013.1
20260508224022 71 148 3.0 9.0 0.00 0.00 0.00 47 1013.2
20260508223523 71 156 4.0 9.0 0.00 0.00 0.00 47 1013.3
20260508223042 71 139 4.0 9.0 0.00 0.00 0.00 46 1013.3
20260508222526 71 149 3.0 9.0 0.00 0.00 0.00 46 1013.3
20260508222023 71 117 4.0 9.0 0.00 0.00 0.00 47 1013.2
20260508221547 71 235 3.0 8.0 0.00 0.00 0.00 47 1013.3
20260508221023 71 145 3.0 8.0 0.00 0.00 0.00 45 1013.2
20260508220524 71 167 3.0 6.0 0.00 0.00 0.00 45 1013.2
20260508220039 72 112 2.0 6.0 0.00 0.00 0.00 45 1013.1
20260508215523 72 115 2.0 6.0 0.00 0.00 0.00 43 1013.1
20260508215024 72 163 1.0 7.0 0.00 0.00 0.00 43 1012.9
20260508214547 72 158 3.0 8.0 0.00 0.00 0.00 44 1013.1
20260508214024 72 178 3.0 8.0 0.00 0.00 0.00 42 1013.1
20260508213524 72 117 5.0 8.0 0.00 0.00 0.00 42 1012.8
20260508213044 72 53 1.0 8.0 0.00 0.00 0.00 43 1012.9
20260508212524 72 90 3.0 8.0 0.00 0.00 0.00 41 1012.9
20260508212024 72 121 4.0 7.0 0.00 0.00 0.00 42 1012.9
20260508211543 72 106 1.0 4.0 0.00 0.00 0.00 41 1012.9
20260508211023 72 133 3.0 8.0 0.00 0.00 0.00 41 1013.1
20260508210523 73 157 4.0 9.0 0.00 0.00 0.00 40 1013.3
20260508210044 73 105 3.0 9.0 0.00 0.00 0.00 39 1013.4
20260508205522 72 50 3.0 6.0 0.00 0.00 0.00 41 1013.4
20260508205023 72 123 2.0 6.0 0.00 0.00 0.00 42 1013.5
20260508204541 72 106 2.0 6.0 0.00 0.00 0.00 40 1013.7
20260508204020 72 100 2.0 6.0 0.00 0.00 0.00 41 1013.8